This demonstration page uses our WeatherBlox Daily Observations layout. Learn more.

Left ArrowRight Arrow

Hourly Observations for December 22, 2019

Temp ( °F °C ) Dew Point ( °F °C ) Humidity (%) Winds ( mph kmh ) Pressure ( in mb ) Visibility ( mi km ) Precip ( " mm )
12:56 am 00:56 Clear 30 -1 28 -2 93 93 E 5 7 30.20 1023 10 16 0.00 0.00
1:56 am 01:56 Clear 32 0 30 -1 93 93 SE 5 7 30.19 1022 9 14 0.00 0.00
2:56 am 02:56 Clear 34 1 28 -2 81 81 SE 5 7 30.19 1022 10 16 0.00 0.00
3:56 am 03:56 Clear 30 -1 28 -2 93 93 ENE 3 6 30.18 1022 9 14 0.00 0.00
4:56 am 04:56 Clear 28 -2 27 -3 93 93 E 6 9 30.18 1022 8 13 0.00 0.00
5:56 am 05:56 Clear 30 -1 27 -3 86 86 ESE 6 9 30.17 1022 9 14 0.00 0.00
6:56 am 06:56 Clear 32 0 27 -3 80 80 S 6 9 30.16 1022 10 16 0.00 0.00
7:56 am 07:56 Sunny 32 0 27 -3 80 80 SSE 6 9 30.17 1022 10 16 0.00 0.00
8:56 am 08:56 Sunny 30 -1 28 -2 93 93 SSE 7 11 N/A 10 16 0.00 0.00
9:56 am 09:56 Sunny 39 4 30 -1 70 70 S 9 15 30.16 1021 10 16 0.00 0.00
10:56 am 10:56 Sunny 43 6 30 -1 61 61 S 5 7 30.16 1021 10 16 0.00 0.00
11:56 am 11:56 Mostly Sunny 45 7 30 -1 57 57 S 10 17 30.12 1020 10 16 0.00 0.00
12:56 pm 12:56 Sunny 48 9 30 -1 50 50 S 10 17 30.09 1019 10 16 0.00 0.00
1:56 pm 13:56 Sunny 50 10 30 -1 47 47 S 9 15 30.07 1018 10 16 0.00 0.00
2:56 pm 14:56 Sunny 54 12 28 -2 38 38 S 12 19 30.06 1018 10 16 0.00 0.00
3:56 pm 15:56 Partly Cloudy 52 11 34 1 50 50 SE 8 13 30.06 1018 10 16 0.00 0.00
4:56 pm 16:56 Partly Cloudy 48 9 34 1 58 58 SE 8 13 30.05 1018 10 16 0.00 0.00
5:56 pm 17:56 Partly Cloudy 45 7 34 1 66 66 ESE 5 7 30.06 1018 10 16 0.00 0.00
6:56 pm 18:56 Mostly Cloudy 45 7 30 -1 57 57 SE 5 7 30.06 1018 10 16 0.00 0.00
7:56 pm 19:56 Mostly Cloudy 45 7 28 -2 53 53 SSE 5 7 30.06 1018 10 16 0.00 0.00
8:56 pm 20:56 Mostly Cloudy 41 5 30 -1 66 66 SE 5 7 30.06 1018 10 16 0.00 0.00
9:56 pm 21:56 Mostly Cloudy 39 4 30 -1 70 70 SE 7 11 30.05 1018 10 16 0.00 0.00
10:56 pm 22:56 Mostly Cloudy 37 3 32 0 81 81 E 3 6 30.05 1018 10 16 0.00 0.00
11:56 pm 23:56 Clear 36 2 30 -1 81 81 SE 3 6 30.05 1018 10 16 0.00 0.00

Powered by AerisWeather